User: anonymous   Login
Location: Caltech
(34.1382°N, 118.1253°W)
Time: 19:22:19
(UTC-07:00)
Language:

RESURS DK-1 - Orbit

View from above orbital plane
View from above orbital plane
View from above satellite
View from above satellite

Ground track
Ground track

The orbit data is extracted from the following two-line orbital elements,

1 29228U 06021A   15149.78555697  .00000216  00000-0  24138-4 0  9995
2 29228 069.9372 203.8516 0002598 010.6211 110.1472 15.01496903495586
Epoch (UTC): 29 May 2015 18:51:12
Eccentricity: 0.0002598
inclination: 69.9372°
perigee height: 560 km
apogee height: 564 km
right ascension of ascending node: 203.8516°
argument of perigee: 10.6211°
revolutions per day: 15.01496903
mean anomaly at epoch: 110.1472°
orbit number at epoch: 49558

The dashed part of the orbit path shows where the satellite is in the earth's shadow,  

DLR